Dewpoint
50 50 50 50 48 47 45 44 43 43 43 42 41 40 39 38 38 38 40 44 47 45 41 38 39 38 38 40 40 41 41 41 41 41 40 40 40 39 38 38 39 40 41 40 40 40 39 38 37 37 37 38 38 37 37 37 37 36 36 35 35 36 37 37 37 36 35 33 32
51 50 49 47 46 45 45 44 44 44 44 44 43 42 40 39 38 38 39 41 42 41 40 39 38 38 39 40 41 41 41 41 41 41 41 41 40 38 38 38 40 40 40 39 40 40 39 38 37 36 36 37 37 37 37 36 37 36 35 35 35 36 37 37 37 37 36 34 33
51 50 49 48 47 46 45 44 45 45 44 43 42 43 43 42 41 40 40 38 39 41 41 40 38 38 40 40 41 41 41 41 41 41 41 41 40 38 38 39 40 39 39 40 40 39 39 38 37 36 35 36 36 36 36 37 36 36 35 35 35 36 36 36 36 36 35 34 33
51 50 49 48 47 46 45 45 45 45 45 44 42 42 42 42 41 41 41 41 39 42 46 46 39 38 39 40 41 41 41 40 41 41 41 41 40 39 38 39 40 40 40 40 39 39 39 38 37 36 35 35 35 35 36 36 35 35 34 35 35 35 35 35 35 35 34 34 33
51 50 49 49 47 47 46 46 46 46 47 45 44 43 42 41 40 42 44 45 42 45 50 54 44 39 38 40 41 41 41 40 40 41 42 41 40 39 39 39 40 40 40 40 40 39 39 38 37 36 36 35 35 35 36 36 35 34 33 34 35 35 35 34 34 34 34 34 33
51 50 49 48 47 47 47 47 47 47 47 47 46 44 43 42 42 43 45 47 47 47 47 47 43 41 41 43 43 42 41 41 41 42 42 41 40 40 39 40 40 40 39 40 40 40 39 38 36 36 35 35 33 33 35 35 34 33 33 34 35 35 35 34 34 34 34 33 33
51 50 48 47 47 46 46 47 47 48 48 47 47 46 44 42 43 44 45 46 46 44 42 40 41 42 43 45 45 42 41 41 42 42 42 41 40 39 38 40 39 39 39 39 39 39 38 37 36 35 34 34 34 34 34 36 35 34 33 33 35 35 35 33 33 33 33 33 33
51 50 48 47 46 45 45 46 47 47 48 47 47 46 46 44 44 44 45 45 44 42 40 39 42 43 45 47 45 42 40 40 41 42 42 41 40 38 38 38 38 38 38 38 38 38 37 37 36 35 35 34 33 34 34 34 34 33 33 33 34 35 33 32 31 32 33 33 33
51 50 49 47 46 45 45 46 47 47 47 47 46 47 47 46 44 44 44 44 43 42 40 40 41 42 44 45 43 41 39 38 39 41 42 41 39 38 38 38 38 37 37 37 37 36 36 37 37 36 35 34 33 33 33 34 32 31 32 33 34 34 34 32 31 32 33 33 33
51 50 49 47 47 46 46 46 46 47 47 47 47 47 47 43 44 44 44 43 42 42 41 40 41 41 42 42 42 40 39 38 39 40 40 39 37 36 36 37 36 36 36 36 36 36 36 36 37 35 34 35 34 33 33 33 32 31 31 34 33 33 33 33 33 32 32 32 32
51 50 49 48 48 47 46 47 46 47 47 47 47 47 46 43 44 44 44 42 42 42 42 40 41 41 40 40 39 38 38 38 39 39 39 38 36 35 35 36 36 35 35 34 34 34 34 36 35 33 33 35 34 32 32 32 31 30 30 32 32 31 31 32 32 32 31 31 32
51 50 49 48 48 47 47 47 46 46 46 47 46 45 45 44 45 44 43 43 44 43 41 40 40 40 39 38 38 38 38 38 39 39 39 38 36 35 35 35 35 34 34 33 33 33 33 33 33 33 33 34 34 33 31 31 31 30 29 30 31 31 30 30 30 30 29 29 30
51 50 49 48 48 47 47 47 46 46 46 46 45 44 44 43 43 43 43 44 44 42 41 40 40 39 38 38 37 37 38 38 39 39 39 38 36 35 35 35 34 34 33 33 33 33 32 32 33 33 33 33 34 33 33 31 31 30 29 29 29 30 30 29 29 29 29 29 29
51 50 49 48 48 47 47 47 46 46 45 45 45 44 43 43 43 43 44 44 43 42 41 40 39 39 38 37 36 37 37 38 38 39 38 38 36 35 34 34 33 33 33 33 34 33 32 32 33 34 33 33 33 34 33 32 31 30 29 29 29 29 29 29 28 28 29 29 28
51 50 49 48 48 47 47 47 46 46 45 45 44 44 44 43 44 44 44 44 43 42 41 40 39 38 38 37 36 36 37 38 38 38 38 36 35 35 34 33 33 32 32 33 34 34 33 34 34 34 33 32 32 32 32 32 31 30 29 29 28 28 28 28 28 28 28 28 28
51 50 49 48 48 48 47 47 47 46 46 45 45 44 44 44 44 45 45 45 43 42 41 40 39 38 38 37 37 37 37 38 38 38 37 35 35 34 33 33 32 31 31 32 34 36 37 37 36 35 33 32 31 31 31 31 31 30 29 29 28 27 27 27 27 27 28 29 28
50 50 49 48 48 48 48 47 47 47 46 45 45 45 45 45 46 46 46 45 44 42 41 40 39 39 38 38 38 38 38 38 38 37 36 35 34 33 33 32 32 31 32 33 35 36 36 37 37 36 34 33 31 30 30 30 30 30 30 29 28 27 27 27 27 27 27 27 27
50 50 49 49 48 48 48 48 48 47 47 46 46 46 46 46 47 47 47 46 44 42 41 40 39 39 39 40 41 40 39 38 38 36 35 34 34 33 33 33 33 33 34 35 35 35 34 33 34 35 35 33 32 30 30 30 30 30 30 29 29 28 27 27 26 26 26 26 26
50 50 49 48 48 48 48 48 48 48 47 47 47 47 47 47 48 48 47 46 44 42 41 40 39 39 40 40 41 40 39 39 38 36 35 34 34 34 34 34 35 36 36 35 34 33 32 33 34 35 35 33 32 31 30 29 29 30 30 29 29 28 27 27 26 26 26 26 26
50 49 49 48 48 48 48 48 49 49 48 48 48 48 48 48 49 48 47 45 43 43 42 40 39 39 40 40 40 39 38 38 37 35 34 34 34 35 36 37 37 37 36 33 31 31 31 33 34 34 34 33 32 31 30 29 29 29 29 29 29 28 28 27 27 27 26 26 26
50 50 49 48 48 48 48 49 49 49 49 49 49 49 49 49 49 47 46 44 43 42 42 40 39 39 39 39 39 38 38 37 36 35 35 35 36 37 38 38 38 36 33 30 29 29 31 33 34 34 34 33 33 31 30 29 29 29 29 29 29 29 28 28 28 27 27 27 26
51 50 49 48 48 48 48 49 49 50 50 50 49 49 49 49 48 47 45 43 42 42 42 41 40 39 39 39 38 38 38 38 37 36 36 36 37 38 38 38 37 33 30 28 29 30 32 33 34 34 33 32 32 31 30 29 29 29 29 29 29 29 29 29 29 28 28 27 27
51 51 50 48 48 47 48 48 49 50 50 50 50 49 49 48 47 45 44 42 42 41 41 41 41 40 39 38 38 38 37 38 38 37 37 38 38 38 38 37 33 30 28 28 30 32 33 34 34 33 33 32 31 30 30 30 29 29 30 30 30 29 29 29 29 29 29 28 28
52 51 50 49 48 48 47 48 49 49 49 49 49 49 48 47 46 44 42 42 41 40 40 39 40 40 40 38 38 37 37 38 38 38 38 38 38 38 36 33 30 28 29 34 36 37 37 35 34 33 32 31 30 30 30 32 31 30 30 30 30 30 29 29 29 29 29 29 29
52 51 50 50 49 48 47 47 48 48 48 48 47 47 47 46 44 42 41 40 40 39 39 38 39 40 41 39 38 38 37 38 38 39 39 39 38 36 33 30 28 31 34 37 38 38 37 36 35 33 31 30 29 31 33 33 34 33 32 33 33 32 30 30 30 29 29 29 29
51 51 51 50 49 48 48 47 47 47 47 47 46 45 45 43 42 41 40 39 39 39 38 38 38 38 39 39 38 38 38 38 39 39 40 39 37 33 30 28 31 35 38 37 37 37 36 36 35 33 32 31 30 32 34 35 35 35 34 34 34 33 32 32 31 31 30 30 30
51 51 51 50 50 49 48 47 47 46 46 45 44 43 42 41 40 39 39 38 38 38 38 38 38 38 39 39 39 39 39 40 40 40 40 38 34 31 29 30 33 36 38 37 36 36 36 36 35 35 34 35 33 33 34 35 36 36 35 34 35 34 33 33 33 33 32 32 31
50 50 50 50 50 49 48 47 46 45 45 44 43 42 41 39 39 38 38 38 38 38 38 38 39 40 41 41 40 40 40 40 40 40 38 36 32 30 30 32 34 37 38 37 36 36 36 36 36 35 35 35 36 36 36 35 35 35 35 35 35 35 34 34 34 34 34 33 33
49 49 49 48 48 47 47 45 45 44 44 43 42 40 39 38 38 38 38 38 38 38 39 40 41 42 42 42 41 41 41 40 39 38 37 34 31 31 32 34 35 36 37 36 36 36 36 36 36 35 35 35 36 36 35 34 33 33 34 34 35 35 35 34 34 34 34 34 34
47 47 47 45 45 45 45 44 44 43 43 42 41 39 38 38 38 38 38 38 38 39 41 42 42 42 42 42 42 41 40 40 38 37 35 32 31 31 33 34 35 36 36 36 36 36 36 36 35 35 34 35 35 35 35 33 33 33 33 33 34 34 34 34 34 34 34 34 34
46 45 44 43 43 43 43 43 43 42 42 41 40 39 38 38 38 38 38 38 39 40 41 42 43 42 42 42 42 41 40 38 37 36 34 32 32 33 34 36 35 35 35 35 35 36 36 36 35 34 34 34 34 34 34 33 32 33 33 33 33 33 33 34 34 34 34 34 34
44 44 43 42 42 42 42 42 42 42 42 42 41 40 39 39 39 40 40 40 41 42 42 43 42 42 42 42 41 40 39 38 36 35 34 33 33 33 34 35 35 34 34 35 35 35 35 35 35 34 34 33 33 33 34 32 32 32 32 32 31 32 32 32 32 33 33 33 33
43 43 43 42 42 42 42 42 42 42 42 42 41 40 40 40 42 41 41 41 42 42 43 43 42 42 41 41 40 39 38 37 35 34 34 33 34 35 35 35 34 33 33 35 35 35 35 35 34 34 33 33 33 33 33 32 31 31 32 31 31 31 32 32 32 32 32 32 33
42 42 42 42 42 42 42 42 42 43 44 42 41 41 41 41 41 41 40 41 42 43 43 42 42 41 40 39 39 38 38 36 35 35 35 35 36 36 35 34 32 32 33 35 34 34 34 34 34 34 33 33 33 32 32 33 31 31 31 31 31 31 31 32 32 32 32 32 33
40 40 40 41 42 42 43 43 43 43 42 41 40 41 42 42 41 41 41 41 41 42 42 42 41 40 40 39 39 38 37 36 35 35 35 36 36 36 34 33 31 32 34 35 34 34 34 34 34 34 33 32 32 32 32 32 32 31 30 30 30 30 31 31 31 32 32 33 33
39 40 41 42 43 43 43 42 41 40 40 40 41 41 42 43 42 42 41 40 40 41 41 41 41 40 39 39 39 38 37 36 36 36 36 36 36 35 34 33 31 33 34 35 34 34 34 34 34 34 33 33 33 32 32 31 31 31 31 31 31 32 32 33 33 33 33 34 33
41 42 43 43 42 42 40 40 39 39 39 41 42 42 41 41 42 42 41 39 40 40 40 40 40 40 39 39 39 39 39 39 38 37 36 35 34 33 33 32 32 33 34 35 34 34 34 34 34 33 33 33 33 32 32 32 31 31 32 32 32 33 33 33 33 33 34 33 33
43 43 42 41 39 38 38 39 39 39 39 41 42 42 41 40 40 40 40 38 39 39 39 39 39 39 39 39 39 39 39 40 38 37 36 33 33 32 32 32 33 33 34 35 34 34 34 34 34 34 33 33 33 32 32 32 33 33 33 33 33 33 33 34 33 33 33 33 33
41 39 38 38 38 37 38 38 39 40 41 42 41 41 40 40 39 39 39 37 38 38 38 38 38 39 39 39 39 39 39 40 38 37 35 33 32 31 32 32 34 34 34 34 34 35 35 35 34 34 34 33 33 33 33 33 33 34 34 33 33 33 33 33 32 32 33 32 33
38 37 37 37 37 37 37 37 38 40 42 41 39 38 38 39 38 38 38 37 38 38 38 38 38 38 38 38 39 39 39 39 38 36 33 32 31 32 33 34 36 35 34 33 34 35 35 35 34 34 34 33 34 35 35 34 34 34 33 33 32 32 31 31 31 31 31 32 33
37 37 37 37 36 36 36 36 38 40 42 41 39 38 38 38 38 38 38 38 38 38 37 37 38 38 38 37 38 38 38 38 38 36 33 32 32 33 35 36 37 36 34 33 34 35 35 35 35 34 34 34 35 36 36 35 34 33 33 32 31 31 30 31 31 31 31 31 31